Location: Chakepay
(13.3931°S, 72.1925°W)
Time: 15:12:27
(UTC+00:00)

SJ-6F - Pass Details

Date: 15 November 2019
Orbit: 570 x 595 km, 97.7° (Epoch: 09 December)

Event Time Altitude Azimuth Distance (km) Brightness Sun altitude
Exits shadow 08:45:48 18° 7° (N) 1,448 6.3 -20.1°
Maximum altitude 08:48:48 78° 282° (WNW) 591 4.2 -19.5°
Drops below altitude 10° 08:52:55 10° 195° (SSW) 1,897 7.2 -18.6°
Sets 08:55:05 0° 193° (SSW) 2,805 8.1 -18.1°
